[[{"header":{"parameterUnit":"m.s-1","parameterCategory":1,"la1":30.2991,"la2":30.254,"lo1":-89.0895,"lo2":-89.0444,"dy":0.0017,"dx":0.0017,"nx":28,"ny":28,"refTime":"2024-02-14T03:00:00:Z","depth":0,"parameterNumber":2,"parameterNumberName":"U-component_of_WINDS"},"data":[0,0,0,0,0,0,0,0,0,0,0,0,0,0,0,0,0,0,0,0,0,0,0,0,0,0,0,0,0,0,0,0,0,0,0,0,0,0,0,0,0,0,0,0,0,0,0,0,0,0,0,0,0,0,0,0,0,0,-0.7229,-0.723,0,-0.7326,-0.7327,-0.7328,-0.7305,-0.7303,-0.7301,-0.7299,-0.7403,-0.7407,-0.7412,0,0,0,0,0,0,0,0,0,0,0,0,0,-0.7029,-0.7033,-0.7229,-0.723,-0.7232,-0.7326,-0.7327,-0.7329,-0.7305,-0.7303,-0.7301,-0.7299,-0.7401,-0.7407,-0.7412,0,0,0,0,0,0,0,0,0,0,0,0,0,-0.712,-0.7034,-0.7229,-0.7231,-0.7232,-0.7326,-0.7327,-0.7329,-0.7306,-0.7303,-0.73,-0.7297,-0.74,-0.7406,-0.7413,-0.7511,0,0,-0.7434,-0.7436,0,0,0,0,0,0,0,0,-0.7115,-0.7128,-0.723,-0.7231,-0.7233,-0.73,-0.7295,-0.739,-0.7306,-0.7278,-0.7299,-0.7296,-0.7371,-0.738,-0.7405,-0.7516,-0.752,-0.7434,-0.7438,-0.7441,-0.7443,0,0,0,0,0,0,0,-0.7109,-0.7123,-0.7268,-0.7231,-0.7233,-0.7229,-0.7239,-0.7313,-0.734,-0.728,-0.7279,-0.729,-0.7372,-0.7398,-0.7407,-0.7522,-0.7434,-0.744,-0.7444,-0.7447,-0.7722,-0.7725,0,0,0,0,0,0,-0.7101,-0.7118,-0.7265,-0.7271,-0.7166,-0.7235,-0.7246,-0.7282,-0.7339,-0.7345,-0.7293,-0.7289,-0.7388,-0.7399,-0.7411,-0.7532,-0.7441,-0.7447,-0.7451,-0.7719,-0.7723,-0.7726,0,0,0,0,0,0,-0.7096,-0.7114,-0.7261,-0.7194,-0.7212,-0.7241,-0.7282,-0.7285,-0.7312,-0.7348,-0.7353,-0.7315,-0.7386,-0.7401,-0.7487,-0.7535,-0.7451,-0.7457,-0.7715,-0.772,-0.7724,-0.7774,0,0,0,0,0,0,-0.7091,-0.7113,-0.7149,-0.7195,-0.7216,-0.7334,-0.7285,-0.7289,-0.7323,-0.7319,-0.737,-0.7376,-0.7385,-0.7477,-0.7493,-0.7543,-0.7462,-0.7711,-0.7717,-0.7723,-0.7768,-0.778,-0.779,0,0,0,0,0,-0.7084,-0.7159,-0.7151,-0.7169,-0.7262,-0.7337,-0.7349,-0.7357,-0.7327,-0.7365,-0.7388,-0.7374,-0.7526,-0.7486,-0.7504,-0.7556,-0.7708,-0.7715,-0.7722,-0.7763,-0.7777,-0.7789,0,0,0,0,0,0,-0.7119,-0.7165,-0.7157,-0.7249,-0.7289,-0.7332,-0.738,-0.7371,-0.7422,-0.7416,-0.7426,-0.7437,-0.7526,-0.7549,-0.7503,-0.7656,-0.7613,-0.7624,-0.7638,-0.7652,-0.7662,-0.7656,-0.7468,0,0,0,0,0,-0.7137,-0.7193,-0.723,-0.7309,-0.7329,-0.7351,-0.7384,-0.7387,-0.7429,-0.7447,-0.7476,-0.752,-0.7577,-0.7615,-0.767,-0.777,-0.7783,-0.7816,-0.7827,-0.7835,-0.7846,-0.7904,-0.7919,-0.775,-0.775,-0.775,0,0,-0.7177,-0.7208,-0.7243,-0.7317,-0.7348,-0.7407,-0.7366,-0.7429,-0.7474,-0.7457,-0.754,-0.7563,-0.7612,-0.7706,-0.7749,-0.7729,-0.7895,-0.7845,-0.7851,-0.7857,-0.7913,-0.7929,-0.7943,-0.7755,-0.7754,-0.7753,0,0,-0.7278,-0.7307,-0.7376,-0.7408,-0.7456,-0.747,-0.7487,-0.7532,-0.7547,-0.763,-0.7619,-0.7673,-0.7772,-0.7808,-0.7839,-0.7956,-0.7946,-0.7973,-0.8031,-0.8087,-0.8101,-0.8113,-0.8157,-0.8173,-0.7983,-0.7983,-0.7983,0,-0.7321,-0.7408,-0.7413,-0.7479,-0.7512,-0.7498,-0.757,-0.7601,-0.7665,-0.769,-0.7665,-0.779,-0.7822,-0.7926,-0.7954,-0.7979,-0.8001,-0.7969,-0.8098,-0.811,-0.8121,-0.8164,-0.818,-0.7986,-0.7986,-0.7986,-0.7985,0,-0.746,-0.7521,-0.7571,-0.7633,-0.7672,-0.774,-0.7757,-0.7797,-0.7797,-0.7814,-0.7901,-0.7938,-0.8002,-0.8026,-0.8026,-0.8131,-0.8117,-0.8095,-0.8053,-0.8141,-0.8181,-0.8197,-0.7991,-0.799,-0.7989,-0.7988,0,0,-0.7588,-0.7651,-0.767,-0.7699,-0.7751,-0.7799,-0.7867,-0.7928,-0.7963,-0.8008,-0.8068,-0.8152,-0.8132,-0.8168,-0.8172,-0.8221,-0.8315,-0.8194,-0.8195,-0.8218,-0.8436,-0.8454,-0.8472,-0.8307,-0.831,-0.8313,-0.8433,0,-0.7696,-0.7816,-0.7823,-0.7932,-0.799,-0.7977,-0.8037,-0.8077,-0.8096,-0.8149,-0.817,-0.8231,-0.8199,-0.8221,-0.8268,-0.8293,-0.8359,-0.8284,-0.8366,-0.8369,-0.8357,-0.8493,-0.8512,-0.8623,-0.8448,-0.8451,-0.8453,0,-0.7839,-0.7888,-0.8002,-0.8048,-0.8073,-0.8126,-0.8184,-0.8234,-0.828,-0.829,-0.833,-0.8328,-0.8401,-0.8354,-0.8456,-0.8405,-0.8438,-0.8456,-0.846,-0.847,-0.8418,-0.851,-0.8658,-0.8676,-0.8477,-0.8475,-0.8473,0,-0.7924,-0.8018,-0.81,-0.8124,-0.8179,-0.8218,-0.8242,-0.8285,-0.8322,-0.8372,-0.8397,-0.8456,-0.8489,-0.8535,-0.855,-0.8514,-0.8653,-0.8606,-0.8666,-0.8666,-0.8698,-0.8696,-0.8857,-0.8715,-0.8714,-0.8714,-0.8714,0,-0.8046,-0.8118,-0.8139,-0.819,-0.827,-0.8278,-0.8358,-0.8381,-0.8419,-0.8475,-0.8468,-0.8521,-0.8536,-0.8593,-0.8604,-0.8689,-0.8703,-0.8715,-0.8718,-0.8718,-0.8717,-0.8742,-0.8736,-0.8718,-0.8717,-0.8717,-0.8716,0,-0.8156,-0.8173,-0.8261,-0.8306,-0.8319,-0.8376,-0.8415,-0.8465,-0.8482,-0.8554,-0.8571,-0.8599,-0.8666,-0.8684,-0.8764,-0.8772,-0.8872,-0.8866,-0.8857,-0.8858,-0.8918,-0.8913,-0.9103,-0.9129,-0.8967,-0.8968,-0.8969,0,-0.8234,-0.8289,-0.8339,-0.8376,-0.8402,-0.8461,-0.8499,-0.8509,-0.8549,-0.8606,-0.865,-0.8715,-0.8768,-0.8875,-0.8904,-0.8965,-0.8963,-0.9025,-0.8972,-0.8971,-0.8968,-0.8965,-0.8972,-0.9036,-0.9038,-0.9039,-0.904,0,-0.8372,-0.8378,-0.8432,-0.8489,-0.8534,-0.858,-0.8625,-0.8655,-0.8672,-0.8718,-0.8785,-0.8826,-0.8908,-0.8974,-0.9037,-0.9064,-0.9057,-0.9056,-0.9074,-0.9075,-0.9069,-0.9076,-0.8887,-0.9052,-0.9051,-0.905,-0.905,-0.9049,-0.8471,-0.852,-0.8563,-0.8624,-0.8658,-0.87,-0.875,-0.8773,-0.8829,-0.8896,-0.8898,-0.8973,-0.9019,-0.9102,-0.9133,-0.9192,-0.9174,-0.9199,-0.9206,-0.9213,-0.9219,-0.9057,-0.9203,-0.9203,-0.9203,-0.9203,-0.9202,0,-0.8611,-0.8638,-0.8694,-0.8756,-0.8805,-0.8791,-0.8839,-0.8882,-0.8947,-0.899,-0.9042,-0.9121,-0.9185,-0.9219,-0.9283,-0.9325,-0.9323,-0.9341,-0.934,-0.9347,-0.923,-0.921,-0.9342,-0.9342,-0.9342,-0.9342,-0.9342,-0.9342,-0.8689,-0.8773,-0.8784,-0.8885,-0.8912,-0.8984,-0.9013,-0.9053,-0.9087,-0.9176,-0.9229,-0.9249,-0.929,-0.9357,-0.9416,-0.9425,-0.945,-0.9472,-0.9479,-0.9369,-0.9355,-0.9342,-0.9323,-0.9476,-0.9477,-0.9591,-0.9592,-0.9593]},{"header":{"parameterUnit":"m.s-1","parameterCategory":1,"la1":30.2991,"la2":30.254,"lo1":-89.0895,"lo2":-89.0444,"dy":0.0017,"dx":0.0017,"nx":28,"ny":28,"refTime":"2024-02-14T03:00:00:Z","depth":0,"parameterNumber":3,"parameterNumberName":"V-component_of_WINDS"},"data":[0,0,0,0,0,0,0,0,0,0,0,0,0,0,0,0,0,0,0,0,0,0,0,0,0,0,0,0,0,0,0,0,0,0,0,0,0,0,0,0,0,0,0,0,0,0,0,0,0,0,0,0,0,0,0,0,0,0,-2.574,-2.5741,0,-2.5837,-2.5839,-2.584,-2.5814,-2.5812,-2.581,-2.5808,-2.5906,-2.591,-2.5915,0,0,0,0,0,0,0,0,0,0,0,0,0,-2.5529,-2.5533,-2.574,-2.5741,-2.5742,-2.5837,-2.5839,-2.584,-2.5814,-2.5812,-2.581,-2.5807,-2.5905,-2.591,-2.5915,0,0,0,0,0,0,0,0,0,0,0,0,0,-2.5623,-2.5534,-2.5739,-2.5741,-2.5742,-2.5837,-2.5839,-2.584,-2.5815,-2.5812,-2.5809,-2.5806,-2.5903,-2.5909,-2.5916,-2.6015,0,0,-2.5936,-2.5939,0,0,0,0,0,0,0,0,-2.5618,-2.5631,-2.5739,-2.5741,-2.5742,-2.5811,-2.58,-2.5899,-2.5816,-2.5787,-2.5808,-2.5805,-2.5877,-2.5885,-2.591,-2.602,-2.6024,-2.5937,-2.5941,-2.5944,-2.5945,0,0,0,0,0,0,0,-2.5611,-2.5626,-2.5778,-2.5741,-2.5743,-2.5736,-2.5746,-2.5819,-2.5847,-2.5789,-2.5788,-2.58,-2.5877,-2.5903,-2.5912,-2.6025,-2.5937,-2.5942,-2.5946,-2.5949,-2.6222,-2.6225,0,0,0,0,0,0,-2.5604,-2.5621,-2.5775,-2.5781,-2.5672,-2.5742,-2.5753,-2.5792,-2.5846,-2.5852,-2.5802,-2.5798,-2.5894,-2.5904,-2.5915,-2.6036,-2.5944,-2.595,-2.5954,-2.6218,-2.6222,-2.6226,0,0,0,0,0,0,-2.5599,-2.5618,-2.5771,-2.5701,-2.572,-2.5749,-2.5792,-2.5795,-2.5822,-2.5856,-2.586,-2.5824,-2.5892,-2.5906,-2.5991,-2.6039,-2.5953,-2.5959,-2.6215,-2.622,-2.6224,-2.6277,0,0,0,0,0,0,-2.5593,-2.5616,-2.5655,-2.5702,-2.5724,-2.5846,-2.5795,-2.5799,-2.5834,-2.5829,-2.5878,-2.5883,-2.5891,-2.5981,-2.5997,-2.6046,-2.5964,-2.621,-2.6217,-2.6223,-2.6271,-2.6283,-2.6293,0,0,0,0,0,-2.5586,-2.5665,-2.5657,-2.5675,-2.5772,-2.5849,-2.5861,-2.5869,-2.5837,-2.5876,-2.5898,-2.5882,-2.603,-2.599,-2.6008,-2.606,-2.6207,-2.6215,-2.6222,-2.6266,-2.628,-2.6293,0,0,0,0,0,0,-2.5622,-2.5671,-2.5663,-2.5759,-2.58,-2.5844,-2.5893,-2.5884,-2.5934,-2.5927,-2.5934,-2.5945,-2.6032,-2.6054,-2.6008,-2.6159,-2.6114,-2.6126,-2.6141,-2.6155,-2.6166,-2.616,-2.5969,0,0,0,0,0,-2.5641,-2.5699,-2.5739,-2.582,-2.5841,-2.5864,-2.5897,-2.59,-2.5942,-2.5959,-2.5987,-2.6028,-2.6084,-2.6121,-2.6174,-2.6273,-2.6284,-2.6318,-2.6329,-2.6338,-2.6348,-2.6403,-2.6418,-2.625,-2.625,-2.625,0,0,-2.5681,-2.5715,-2.5752,-2.5829,-2.586,-2.5921,-2.5878,-2.5944,-2.5988,-2.5968,-2.6051,-2.6073,-2.6119,-2.6212,-2.6254,-2.6233,-2.6396,-2.6347,-2.6354,-2.6359,-2.6412,-2.6428,-2.6442,-2.6255,-2.6254,-2.6253,0,0,-2.5785,-2.5817,-2.5889,-2.5922,-2.5971,-2.5985,-2.6003,-2.6048,-2.6063,-2.6145,-2.6132,-2.6184,-2.6281,-2.6315,-2.6344,-2.6462,-2.6449,-2.6479,-2.6537,-2.659,-2.6604,-2.6616,-2.6658,-2.6673,-2.6488,-2.6488,-2.6489,0,-2.5829,-2.592,-2.5926,-2.5994,-2.6028,-2.6013,-2.6086,-2.6117,-2.6181,-2.6205,-2.618,-2.6302,-2.6331,-2.6432,-2.6461,-2.6485,-2.6505,-2.6474,-2.6601,-2.6613,-2.6624,-2.6665,-2.6681,-2.6492,-2.6491,-2.6491,-2.6491,0,-2.5971,-2.6034,-2.6086,-2.615,-2.6189,-2.6259,-2.6276,-2.6315,-2.6314,-2.6331,-2.6416,-2.6451,-2.6512,-2.6536,-2.6535,-2.6637,-2.6622,-2.66,-2.6555,-2.6644,-2.6682,-2.6698,-2.6497,-2.6496,-2.6495,-2.6494,0,0,-2.6101,-2.6168,-2.6187,-2.6216,-2.6269,-2.6318,-2.6386,-2.6446,-2.6481,-2.6525,-2.6583,-2.6665,-2.6644,-2.6678,-2.668,-2.6727,-2.6819,-2.6699,-2.67,-2.6721,-2.6934,-2.6952,-2.697,-2.681,-2.6813,-2.6816,-2.6931,0,-2.6211,-2.6333,-2.6341,-2.6451,-2.651,-2.6497,-2.6557,-2.6596,-2.6613,-2.6665,-2.6684,-2.6742,-2.671,-2.6731,-2.6776,-2.6798,-2.6862,-2.679,-2.6864,-2.6867,-2.6854,-2.699,-2.7009,-2.7116,-2.6946,-2.6948,-2.695,0,-2.6355,-2.6405,-2.6522,-2.6567,-2.6592,-2.6646,-2.6702,-2.6752,-2.6796,-2.6805,-2.6843,-2.6839,-2.6909,-2.6862,-2.6959,-2.6909,-2.694,-2.6955,-2.696,-2.6968,-2.6915,-2.7003,-2.715,-2.7167,-2.6974,-2.6972,-2.697,0,-2.644,-2.6536,-2.6618,-2.6643,-2.6698,-2.6736,-2.6761,-2.6802,-2.6838,-2.6886,-2.691,-2.6966,-2.6996,-2.7039,-2.7051,-2.7015,-2.7147,-2.7101,-2.7157,-2.7157,-2.7187,-2.7185,-2.7342,-2.7205,-2.7204,-2.7204,-2.7204,0,-2.6562,-2.6634,-2.6657,-2.6708,-2.6788,-2.6796,-2.6875,-2.6897,-2.6934,-2.6988,-2.698,-2.7031,-2.7042,-2.7095,-2.7104,-2.7183,-2.7197,-2.7206,-2.7208,-2.7208,-2.7207,-2.7229,-2.7222,-2.7208,-2.7208,-2.7207,-2.7206,0,-2.667,-2.6689,-2.6778,-2.6823,-2.6836,-2.6893,-2.6931,-2.698,-2.6996,-2.7065,-2.7082,-2.7108,-2.717,-2.7185,-2.7259,-2.7265,-2.7359,-2.7353,-2.7345,-2.7345,-2.7401,-2.7396,-2.7579,-2.7603,-2.7449,-2.745,-2.7451,0,-2.6748,-2.6803,-2.6854,-2.6891,-2.6918,-2.6976,-2.7013,-2.7023,-2.7062,-2.7116,-2.7158,-2.7219,-2.7269,-2.7369,-2.7394,-2.745,-2.7446,-2.7507,-2.7455,-2.7453,-2.7449,-2.7446,-2.7452,-2.7517,-2.7518,-2.752,-2.7521,0,-2.6884,-2.689,-2.6944,-2.7002,-2.7047,-2.7092,-2.7136,-2.7166,-2.7182,-2.7225,-2.729,-2.7328,-2.7404,-2.7466,-2.7523,-2.7547,-2.7537,-2.7537,-2.7553,-2.7554,-2.7548,-2.7553,-2.7373,-2.7533,-2.7532,-2.7531,-2.753,-2.753,-2.698,-2.7029,-2.7073,-2.7133,-2.7167,-2.7208,-2.7257,-2.7279,-2.7333,-2.7397,-2.7399,-2.7469,-2.7511,-2.7587,-2.7615,-2.7669,-2.7651,-2.7674,-2.768,-2.7686,-2.7692,-2.7538,-2.7679,-2.7679,-2.7679,-2.7678,-2.7678,0,-2.7116,-2.7144,-2.72,-2.7262,-2.7309,-2.7296,-2.7344,-2.7384,-2.7447,-2.7487,-2.7537,-2.761,-2.767,-2.7699,-2.7758,-2.7796,-2.7793,-2.7811,-2.7809,-2.7815,-2.7704,-2.7685,-2.7813,-2.7813,-2.7813,-2.7813,-2.7813,-2.7813,-2.7193,-2.7275,-2.7287,-2.7386,-2.7413,-2.7483,-2.7511,-2.7549,-2.7581,-2.7665,-2.7714,-2.7733,-2.777,-2.7831,-2.7885,-2.7892,-2.7914,-2.7935,-2.794,-2.7836,-2.7823,-2.781,-2.7792,-2.794,-2.794,-2.8047,-2.8047,-2.8048]}]]